Regional Weather Roundup
Issued by NWS

Home | Current Version | Previous Version | Graphics & Text | Print | Product List | Glossary On
Versions: 1 2 3 4 5 6 7 8 9 10 11 12 13 14 15 16 17 18 19 20 21 22 23 24 25 26 27 28 29 30 31 32 33 34 35 36 37 38 39 40 41 42 43 44 45 46 47 48 49 50
000
ASUS43 KLMK 211002
RWRKY
KENTUCKY REGIONAL WEATHER ROUNDUP
NATIONAL WEATHER SERVICE LOUISVILLE KY
600 AM EDT TUE OCT 21 2014

NOTE "FAIR" INDICATES FEW OR NO CLOUDS BELOW 12,000 FEET
WITH NO SIGNIFICANT WEATHER AND/OR OBSTRUCTIONS TO VISIBILITY.

KYZ001>023-026-027-061>063-070>075-211100-
WESTERN AND SOUTH CENTRAL KENTUCKY

CITY           SKY/WX    TMP DP  RH WIND       PRES   REMARKS
PADUCAH        CLEAR     44  43  96 SW5       30.03R
HENDERSON      CLEAR    N/A N/A N/A CALM      30.02R
OWENSBORO      CLEAR     48  45  90 CALM      30.02R
HOPKINSVILLE   CLEAR     49  49 100 SW2       30.02R
BOWLING GREEN  CLEAR     47  45  93 CALM      30.01R FOG
GLASGOW        NOT AVBL
$$

KYZ024-025-028>034-038-045-046-053-211100-
NORTH CENTRAL KENTUCKY

CITY           SKY/WX    TMP DP  RH WIND       PRES   REMARKS
LOUISVILLE/SDF PTCLDY    49  45  86 SW9       29.99R
LOUISVILLE/LOU FOG       46  44  93 CALM      30.00R VSB 1/2
FORT KNOX      CLEAR     43  41  95 W5        29.98R
$$

KYZ035>037-039>044-047>052-055>060-089>105-211100-
NORTHEAST KENTUCKY

CITY           SKY/WX    TMP DP  RH WIND       PRES   REMARKS
LEXINGTON      MOCLDY    53  48  83 W6        29.96R
COVINGTON      MOCLDY    50  46  86 NW8       29.95R
FRANKFORT      MOCLDY    50  46  86 NW6       29.96R
$$

KYZ054-064>069-076>088-106>120-211100-
SOUTHEAST KENTUCKY

CITY           SKY/WX    TMP DP  RH WIND       PRES   REMARKS
JACKSON        CLEAR     49  46  90 VRB3      29.94S
LONDON         CLEAR     46  42  86 CALM      29.97R
SOMERSET       FOG       43  43 100 CALM      29.98F VSB 1/2
MIDDLESBORO    CLEAR     46  45  99 CALM      29.98S
MONTICELLO     SUNNY     42  41  97 CALM      30.00S FOG
$$



USA.gov is the U.S. government's official web portal to all federal, state and local government web resources and services.